User: anonymous   Login
Location: Unspecified
(0.0000°N, 0.0000°E)
Time: 10:06:10
(UTC+00:00)
Language:

STARLINK-35590 - Orbit

View from above orbital plane
View from above orbital plane
View from above satellite
View from above satellite

Ground track
Ground track

The orbit is defined by the following mean orbital elements,

1 66108U          26145.09701786 +.00000000 +00000-0 +43702-3 0 00009
2 66108  53.1597 108.9066 0001301 107.3165 252.7979 15.30210017    02
Epoch (UTC): 25 May 2026 02:19:42
Eccentricity: 0.0001301
inclination: 53.1597°
perigee height: 474 km
apogee height: 476 km
right ascension of ascending node: 108.9066°
argument of perigee: 107.3165°
revolutions per day: 15.30210017
mean anomaly at epoch: 252.7979°

The dashed part of the orbit path shows where the satellite is in the earth's shadow,  

DLR